Content
SEND FEEDBACK

Daily
Averages
Monthly
Summary
Turkmenistan

ASHGABAT, TURKMENISTAN


Home > Asia > Turkmenistan
Elevation: 236 meters     Latitude: 37 58N     Longitude: 058 20E

WEATHER
 
SELECT A DAY
Number of Records: 177,592;   Date Range: 3/15/97 - 9/20/14
 
SHARE

PRINT THIS DATA

[ ← Previous Day ]
WEATHER ALMANAC - 29 MARCH, 2013
[ Next Day → ]
[ °F ]   °C
Weather ElementAverageHighLow
Temperature19.5 °C25.6 °C (5:00 pm)13.3 °C (8:00 am)
Dewpoint6.1 °C10 °C (11:00 pm)3.9 °C (2:00 am)
Humidity40.6 %63 % (8:00 am)20 % (2:00 pm)
Barometer1013.2 hPa1015.2 hPa (9:00 am)1011.9 hPa (2:00 am)
Wind Speed9 km/h18 km/h (5:00 pm)
Weather ElementAverage
Visibility9.7 km
Wind DirectionSSE (170 °)

Weather ElementTotal
Precipitation---
Cooling Degree Days1.1 (Base 18.3)
Growing Degree Days9.4 (Base 10)
Averaged from 31 records on 29 March, 2013
WEATHER CONDITIONS BREAKOUT
WIND DIRECTION BREAKOUT
WEATHER BY HOUR - 29 MARCH, 2013
[ °F ]   °C
Local TimeTemperatureDewpointHumidityBarometerVisibilityWind DirectionWind SpeedGust SpeedPrecipitationEventsConditions
1:00 AM16 °C5 °C48 %1012.2 hPa1.9 kmNorthClear
2:00 AM18.3 °C3.9 °C27 %1011.9 hPa9.7 kmWSW (240°)3.5 km/h
2:00 AM15 °C5 °C51 %1012.2 hPa10 kmSSW (200°)3.5 km/hClear
3:00 AM14 °C6 °C59 %1012.2 hPa10 kmWest (280°)10.8 km/hScattered Clouds
4:00 AM15 °C4 °C48 %1013.2 hPa10 kmWSW (250°)14.3 km/hPartly Cloudy
5:00 AM14.4 °C5.6 °C44 %1013.2 hPa9.7 kmSW (220°)10.8 km/hScattered Clouds
5:00 AM15 °C4 °C48 %1013.2 hPa10 kmSSW (200°)7.2 km/hPartly Cloudy
6:00 AM14 °C5 °C55 %1013.2 hPa10 kmSW (220°)7.2 km/hClear
7:00 AM14 °C5 °C55 %1014.2 hPa10 kmSouth (190°)7.2 km/hPartly Cloudy
8:00 AM13.3 °C6.1 °C50 %1014.6 hPa9.7 kmSW (220°)3.5 km/hClear
8:00 AM14 °C7 °C63 %1014.2 hPa10 kmWest (260°)7.2 km/hPartly Cloudy
9:00 AM18 °C7 °C49 %1015.2 hPa10 kmWSW (250°)7.2 km/hClear
10:00 AM20 °C8 °C46 %1015.2 hPa10 kmNNW (330°)7.2 km/hPartly Cloudy
11:00 AM21.1 °C8.3 °C33 %1014.6 hPa9.7 kmNNW (330°)10.8 km/hClear
11:00 AM22 °C7 °C38 %1015.2 hPa10 kmNNW (340°)7.2 km/hPartly Cloudy
12:00 PM23 °C6 °C33 %1014.2 hPa10 kmNorth (350°)7.2 km/hClear
1:00 PM24 °C5 °C29 %1014.2 hPa10 kmNorth (10°)7.2 km/hClear
2:00 PM24.4 °C6.1 °C20 %1013.5 hPa9.7 kmENE (70°)14.3 km/hClear
2:00 PM25 °C5 °C28 %1013.2 hPa10 kmESE (120°)14.3 km/hPartly Cloudy
3:00 PM25 °C4 °C26 %1013.2 hPa10 kmEast (90°)14.3 km/hPartly Cloudy
4:00 PM25 °C4 °C26 %1012.2 hPa10 kmEast (100°)14.3 km/hPartly Cloudy
5:00 PM25.6 °C6.7 °C20 %1011.9 hPa9.7 kmEast (90°)18 km/hScattered Clouds
5:00 PM25 °C5 °C28 %1012.2 hPa10 kmEast (90°)18 km/hScattered Clouds
6:00 PM25 °C4 °C26 %1012.2 hPa10 kmEast (100°)14.3 km/hMostly Cloudy
7:00 PM23 °C5 °C31 %1012.2 hPa10 kmESE (110°)10.8 km/hMostly Cloudy
8:00 PM21.7 °C7.2 °C28 %1011.9 hPa9.7 kmESE (120°)7.2 km/hScattered Clouds
8:00 PM20 °C6 °C40 %1012.2 hPa10 kmESE (120°)7.2 km/hMostly Cloudy
9:00 PM19 °C8 °C49 %1012.2 hPa10 kmSSW (200°)7.2 km/hMostly Cloudy
10:00 PM19 °C9 °C52 %1012.2 hPa10 kmVariable3.5 km/hMostly Cloudy
11:00 PM17.8 °C10 °C51 %1012.2 hPa9.7 kmCalmOvercast
11:00 PM18 °C10 °C59 %1012.2 hPa10 kmVariable3.5 km/hOvercast
Hourly data recorded from UTAA, located 0 kilometers away from Ashgabat, Turkmenistan







STORIES FROM OUR PARTNERS